Location: Casone le Fosse
(44.6547°N, 12.1103°E)
Time: 04:25:38
(UTC+00:00)

Cosmos 44 Rocket - Pass Details

Date: 29 October 2020
Orbit: 642 x 748 km, 65.1° (Epoch: 01 December)

Event Time Altitude Azimuth Distance (km) Brightness Sun altitude
Rises 18:12:02 0° 216° (SW) 2,979 7.0 -23.2°
Reaches altitude 10° 18:14:18 10° 218° (SW) 2,085 6.2 -23.6°
Maximum altitude 18:19:03 80° 305° (NW) 698 3.2 -24.5°
Enters shadow 18:19:56 59° 17° (NNE) 793 3.4 -24.6°
